Retour au catalogue

PROBA 1

ActifScienceSSO
NORAD 26958·PAYLOAD·🇪🇺 EU

Lancé Oct 22, 2001 depuis Satish Dhawan Space Centre

Loading…

Prochains Passages (prochaines 24 heures)

TLE

FraisSource: Space-Track

Époque: Sep 14, 2026, 11:15 UTC

1 26958U 01049B   26257.46930806  .00000410  00000-0  30559-4 0  9993
2 26958  97.9612 269.1526 0054331 179.1869 180.9456 15.07797032357070

Suivez PROBA 1 en temps réel avec AllMySat

Download on the App Store